Regional Weather Roundup
Issued by NWS

Home | Current Version | Previous Version | Graphics & Text | Print | Product List | Glossary Off
Versions: 1 2 3 4 5 6 7 8 9 10 11 12 13 14 15 16 17 18 19 20 21 22 23 24 25 26 27 28 29 30 31 32 33 34 35 36 37 38 39 40 41 42 43 44 45 46 47 48 49 50

000
ASUS45 KBOU 212107
RWRCO

WEATHER ROUNDUP FOR COLORADO
NATIONAL WEATHER SERVICE DENVER/BOULDER CO
300 PM MDT MON AUG 21 2017

NOTE: "FAIR" INDICATES FEW OR NO CLOUDS BELOW 12000 FEET WITH NO
SIGNIFICANT WEATHER AND/OR OBSTRUCTIONS TO VISIBILITY.

COZ001>005-013-030-031-212200-
...NORTHWEST COLORADO...

CITY           SKY/WX    TMP DP  RH WIND       PRES   REMARKS
CRAIG          FAIR      85  24  11 E8        30.23F
HAYDEN         FAIR      82  30  15 VRB6      30.27F
MEEKER         FAIR      83  33  16 VRB5      30.23F
RABBIT EARS PA FAIR      63  32  31 NW6       30.57F
STEAMBOAT SPGS FAIR      82  33  17 SW6       30.27F
WALDEN         NOT AVBL
$$

COZ006>008-011-212200-
...WEST CENTRAL VALLEYS...

CITY           SKY/WX    TMP DP  RH WIND       PRES   REMARKS
GRAND JUNCTION FAIR      90  40  17 W8        30.10F
MONTROSE       FAIR      84  42  22 W7        30.19F
EAGLE          FAIR      83  35  18 VRB6      30.25F
RIFLE          FAIR      91  34  13 N5        30.14F
DELTA          FAIR      92  36  14 SW7       30.13F
NUCLA          FAIR      86  34  15 NW5       30.22F
$$

COZ017>023-064>068-212200-
...SOUTHWEST COLORADO...

CITY           SKY/WX    TMP DP  RH WIND       PRES   REMARKS
DURANGO        FAIR      78  44  29 SW7       30.26F
CORTEZ         FAIR      83  47  28 MISG      30.20F
PAGOSA SPRINGS FAIR      74  39  27 S3        30.34F
TELLURIDE      PTSUNNY   74  33  22 N7        30.42F
WOLF CREEK PAS NOT AVBL
$$

COZ009-010-012-014-032>034-037-058>063-212200-
...CENTRAL COLORADO...

CITY           SKY/WX    TMP DP  RH WIND       PRES   REMARKS
ASPEN          FAIR      81  31  16 W13G25    30.30F
BUENA VISTA    RAIN      64  39  41 SE12G21   30.39R
COPPER MTN     PTSUNNY   63  27  25 N5        30.67F
BERTHOUD PASS  CLOUDY    46  43  87 SE16G24   30.71F
COTTONWOOD PAS FAIR      64  32  29 SE3       30.52R THUNDER
GUNNISON         N/A     78  41  26 S7        30.30F
KREMMLING      FAIR      82  32  16 S9        30.32F
LEADVILLE      CLOUDY    65  28  24 VRB7      30.47S
MONARCH PASS   PTSUNNY   55  32  41 E16G24    30.74R
SALIDA         FAIR      84  33  15 NE9G17    30.35F
SUNLIGHT       FAIR      63  32  31 N3        30.60F THUNDER
WILKERSON PASS PTSUNNY   61  32  33 NE10G18   30.64S
$$

COZ069>075-212200-
...SAN LUIS VALLEY/SANGRE DE CRISTO MOUNTAINS...

CITY           SKY/WX    TMP DP  RH WIND       PRES   REMARKS
ALAMOSA        FAIR      78  38  23 SE6       30.29F
DEL NORTE      FAIR      76  38  26 E9        30.33F
LA VETA PASS   NOT AVBL
SAGUACHE       FAIR      79  45  29 S10G16    30.31F
$$

COZ035-036-038>040-212200-
...NORTHERN COLORADO FRONT RANGE...

CITY           SKY/WX    TMP DP  RH WIND       PRES   REMARKS
DENVER INTL AP FAIR      86  39  19 NE18G25   30.18S
DMNS CITY PARK   N/A     85  40  20 N17       30.18F
AURORA         PTSUNNY   85  44  24 NE14G21   30.20F
FRONT RANGE AP MOSUNNY   86  39  19 N18G28    30.18F
ERIE MUNI ARPT FAIR      83  39  20 NE8       30.22S
BOULDER MUN AP PTSUNNY   81  45  28 E5        30.18S
CENTENNIAL     PTSUNNY   84  42  22 N8        30.21F
BROOMFIELD     PTSUNNY   84  45  24 NE13      30.22S
FORT COLLINS   FAIR      85  42  22 N8        30.16F
LONGMONT       FAIR      90  46  22 E7        30.18S
$$

COZ041-046-047-076>085-087-088-212200-
...PIKES PEAK/PALMER DIVIDE AND SOUTHERN FOOTHILLS...

CITY           SKY/WX    TMP DP  RH WIND       PRES   REMARKS
COLO. SPRINGS  FAIR      86  43  22 NE9G21    30.21F
A. F. ACADEMY  FAIR      82  40  22 N10G21    30.23F
SCHRIEVER AFB  FAIR      82  42  24 N10G20    30.22F
CHEYENNE MTN   PTSUNNY   78  41  26 N12       30.22F
ELLICOTT       FAIR       1  32 100 NE12G18   30.20  WCI -16
FALCON         FAIR      81  40  23 N13       30.28F
FORT CARSON    PTSUNNY   85  45  24 NE6       30.18F
LIMON          FAIR      85  47  26 N13G25    30.15F
MONUMENT HILL  FAIR      75  41  29 NE10G20   30.31S
CANON CITY     SUNNY     86  52  30 E13       30.14F
WALSENBURG     FAIR      88  43  20 N3        30.19S
TRINIDAD       FAIR      82  47  29 NW6       30.17S
$$

COZ042>045-048>051-090-091-212200-
...NORTHEAST COLORADO...

CITY           SKY/WX    TMP DP  RH WIND       PRES   REMARKS
GREELEY ARPT   FAIR      86  47  25 N17       30.14S
AKRON          FAIR      83  54  36 N24       30.11S
BURLINGTON     FAIR      88  62  41 N8        30.04S
WRAY           NOT AVBL
YUMA           FAIR      82  45  26 N17G23    30.06S
STERLING       FAIR      82  61  47 N15G25    30.08S
HOLYOKE        FAIR      86  63  45 N17G23    30.04F
FORT MORGAN    FAIR      88  47  24 N20G26    30.12F
$$

COZ086-089-092>099-212200-
...SOUTHEAST COLORADO...

CITY           SKY/WX    TMP DP  RH WIND       PRES   REMARKS
PUEBLO         FAIR      90  47  22 NE12G18   30.08F
LA JUNTA       FAIR      89  55  31 VRB6      30.05F
LAMAR          FAIR      87  53  31 W12       30.00F
SPRINGFIELD      N/A     84  61  45 S12       30.07S
$$



USA.gov is the U.S. government's official web portal to all federal, state and local government web resources and services.